sat.trackr.live / text

‹ back to catalog

GENA-OT

NORAD 66774 · 2025-276DN

PAYLOAD ACTIVE UNKNOWN

§ Identity

Operator
Country
GER
Launch date
2025-11-28
Launch site
AFWTR
Launch vehicle
Mass (kg)
RCS (m²)

External: N2YO · Heavens-Above · Gunter

§ Orbital elements

Epoch: 2026-09-19T11:31:18.471360Z

Period
94.61 min
Inclination
97.4124°
Eccentricity
0.0000820
Mean motion
15.22040032 rev/d
Perigee alt
499.1 km
Apogee alt
500.3 km
Semi-major
6,877.8 km
B*
1.7893e-4
RAAN
335.0474°
Arg perigee
155.6995°
Mean anomaly
204.4280°
Rev number
4,478

§ Raw data

GENA-OT1 66774U 25276DN  26262.48007490  .00004020  00000+0  17893-3 0  99982 66774  97.4124 335.0474 0000820 155.6995 204.4280 15.22040032 44787

JSON: /api/v1/satellites/66774 · /tle

For live sub-satellite position, see the globe view (requires WebGL).

§ Visibility from observer

Set your observer location to see the next 7 days of passes ≥ 10°. The values pass through the URL so the page stays shareable.

No JS? Fill the form by hand. The geolocation button needs JavaScript.